Total_Precipitation_Accumulation
1.59 1.53 1.39 1.35 1.24 1.12 1.10 1.04 0.93 0.85 0.77 0.73 0.67 0.60 0.54 0.47 0.41 0.43 0.41 0.39 0.42 0.64 0.89 0.94 0.97 1.01 1.06 1.13 1.22 1.19 1.03 0.87 0.75 0.68 0.61 0.58 0.54 0.51 0.54 0.53 0.51 0.52 0.57
1.79 1.73 1.53 1.49 1.41 1.32 1.25 1.20 1.11 1.07 0.97 0.90 0.80 0.70 0.65 0.58 0.55 0.56 0.54 0.48 0.43 0.50 0.73 0.99 1.20 1.27 1.33 1.36 1.35 1.30 1.21 1.07 0.95 0.82 0.70 0.66 0.61 0.57 0.57 0.55 0.53 0.55 0.58
2.06 2.00 1.76 1.61 1.53 1.51 1.52 1.46 1.35 1.26 1.18 1.07 0.94 0.88 0.77 0.67 0.61 0.59 0.57 0.53 0.48 0.47 0.55 0.83 1.14 1.28 1.38 1.50 1.54 1.46 1.33 1.24 1.12 1.05 0.92 0.85 0.79 0.72 0.67 0.62 0.59 0.60 0.62
2.16 2.23 1.94 1.70 1.60 1.61 1.59 1.53 1.46 1.33 1.16 1.11 1.07 1.00 0.88 0.78 0.70 0.65 0.59 0.54 0.49 0.45 0.46 0.56 0.78 1.03 1.21 1.45 1.70 1.76 1.67 1.46 1.23 1.09 0.99 0.92 0.90 0.89 0.86 0.79 0.74 0.72 0.71
2.24 2.40 2.11 1.84 1.75 1.74 1.67 1.63 1.56 1.50 1.30 1.16 1.13 1.12 1.01 0.89 0.80 0.74 0.65 0.56 0.48 0.44 0.42 0.42 0.47 0.62 0.88 1.20 1.55 1.78 1.86 1.68 1.41 1.17 1.02 0.93 0.89 0.91 0.96 0.97 0.94 0.92 0.93
2.25 2.48 2.35 2.10 2.02 1.94 1.85 1.72 1.61 1.61 1.57 1.47 1.34 1.26 1.18 1.03 0.94 0.84 0.73 0.65 0.54 0.47 0.44 0.42 0.42 0.45 0.57 0.86 1.20 1.52 1.75 1.74 1.57 1.34 1.15 1.04 0.99 1.00 1.04 1.05 1.07 1.12 1.18
2.31 2.42 2.43 2.35 2.21 2.09 1.96 1.86 1.78 1.71 1.72 1.77 1.73 1.58 1.45 1.26 1.07 0.94 0.85 0.76 0.68 0.60 0.57 0.54 0.53 0.53 0.53 0.69 0.90 1.18 1.43 1.59 1.68 1.63 1.42 1.29 1.23 1.21 1.26 1.29 1.30 1.33 1.37
2.55 2.45 2.42 2.40 2.34 2.25 2.15 2.09 2.02 1.97 1.86 1.82 1.82 1.83 1.77 1.71 1.37 1.05 0.97 0.92 0.83 0.78 0.73 0.67 0.63 0.63 0.63 0.66 0.72 0.82 1.00 1.27 1.58 1.78 1.71 1.57 1.53 1.57 1.64 1.68 1.66 1.68 1.68
2.88 2.63 2.51 2.51 2.47 2.36 2.25 2.21 2.19 2.20 2.21 2.13 1.95 2.05 1.96 1.71 1.46 1.22 1.04 0.97 0.92 0.88 0.85 0.80 0.74 0.72 0.72 0.75 0.77 0.76 0.81 0.96 1.29 1.63 1.78 1.80 1.78 1.84 1.96 2.06 2.06 2.07 2.05
3.11 2.89 2.78 2.73 2.63 2.49 2.39 2.41 2.39 2.39 2.43 2.42 2.30 2.10 1.94 1.68 1.58 1.43 1.18 1.04 1.00 0.93 0.90 0.90 0.84 0.77 0.75 0.78 0.83 0.86 0.89 0.94 1.23 1.54 1.82 2.03 2.17 2.31 2.49 2.52 2.52 2.51 2.42
3.02 2.99 2.91 2.97 2.86 2.72 2.60 2.59 2.60 2.60 2.57 2.51 2.40 2.28 2.21 1.97 1.71 1.63 1.43 1.20 1.16 1.06 0.94 0.89 0.88 0.88 0.89 0.90 0.90 1.00 1.08 1.13 1.32 1.67 2.05 2.40 2.62 2.80 2.99 3.08 3.04 2.96 2.80
2.94 2.96 2.97 2.96 2.94 2.92 2.82 2.73 2.66 2.66 2.62 2.54 2.46 2.31 2.25 2.19 1.98 1.88 1.71 1.45 1.40 1.30 1.15 1.06 1.00 0.94 0.95 0.99 1.03 1.18 1.18 1.24 1.39 1.70 2.17 2.54 2.77 2.95 3.12 3.28 3.32 3.24 3.11
2.72 2.76 2.82 2.87 2.89 2.86 2.90 2.88 2.83 2.71 2.65 2.61 2.52 2.39 2.26 2.12 2.01 2.08 2.08 1.81 1.60 1.43 1.37 1.28 1.17 1.10 1.06 1.11 1.16 1.27 1.21 1.28 1.41 1.61 1.95 2.33 2.46 2.50 2.56 2.70 2.93 3.03 3.06
2.46 2.62 2.67 2.61 2.63 2.71 2.78 2.85 2.81 2.67 2.58 2.51 2.42 2.32 2.27 2.11 2.06 2.13 2.27 2.39 2.26 1.86 1.62 1.47 1.32 1.23 1.18 1.13 1.21 1.34 1.16 1.29 1.29 1.40 1.61 1.81 1.88 1.94 2.04 2.21 2.43 2.55 2.63
2.40 2.37 2.40 2.41 2.33 2.37 2.51 2.65 2.65 2.57 2.49 2.39 2.29 2.22 2.21 2.12 2.10 2.12 2.26 2.50 2.76 2.55 1.95 1.51 1.38 1.31 1.29 1.30 1.40 1.30 1.18 1.34 1.33 1.33 1.40 1.45 1.44 1.47 1.53 1.66 1.87 2.04 2.14
2.39 2.29 2.16 2.15 2.12 2.11 2.20 2.32 2.33 2.31 2.32 2.24 2.15 2.08 2.01 1.96 2.01 2.06 2.14 2.23 2.42 2.54 2.20 1.55 1.33 1.28 1.34 1.36 1.45 1.29 1.22 1.39 1.30 1.25 1.26 1.30 1.32 1.33 1.34 1.39 1.48 1.60 1.74
2.30 2.27 2.11 2.04 2.01 1.94 1.96 2.03 2.00 2.03 2.09 2.08 2.08 2.03 1.88 1.77 1.85 1.89 1.93 1.99 2.04 2.17 2.12 1.57 1.32 1.29 1.34 1.31 1.33 1.24 1.15 1.13 1.09 1.17 1.12 1.13 1.18 1.21 1.22 1.27 1.34 1.43 1.50
2.18 2.23 2.17 2.04 1.95 1.87 1.83 1.86 1.84 1.80 1.81 1.83 1.84 1.90 1.85 1.74 1.73 1.76 1.83 1.80 1.74 1.73 1.83 1.66 1.34 1.24 1.21 1.13 1.16 1.18 1.12 1.08 1.01 1.14 1.12 1.09 1.15 1.17 1.15 1.16 1.20 1.28 1.36
2.01 2.04 2.13 2.06 1.93 1.85 1.76 1.72 1.70 1.68 1.65 1.61 1.63 1.71 1.75 1.78 1.76 1.73 1.72 1.69 1.64 1.62 1.68 1.72 1.44 1.24 1.19 1.12 1.13 1.13 1.09 1.06 0.99 1.09 1.14 1.12 1.11 1.13 1.13 1.13 1.14 1.17 1.21
1.88 1.87 1.92 2.01 2.02 1.96 1.86 1.76 1.70 1.66 1.64 1.58 1.55 1.62 1.64 1.64 1.59 1.55 1.59 1.55 1.57 1.63 1.63 1.70 1.61 1.42 1.30 1.20 1.22 1.25 1.24 1.11 1.04 1.02 1.15 1.16 1.16 1.14 1.12 1.09 1.04 1.04 1.07
1.80 1.81 1.81 1.89 1.93 1.97 1.94 1.85 1.78 1.73 1.71 1.69 1.61 1.57 1.59 1.65 1.58 1.53 1.53 1.54 1.57 1.68 1.74 1.79 1.68 1.49 1.36 1.30 1.24 1.15 1.21 1.19 1.14 1.04 1.08 1.07 1.10 1.12 1.11 1.15 1.16 1.15 1.18
1.76 1.83 1.82 1.86 1.88 1.89 2.11 2.09 1.90 1.82 1.77 1.67 1.57 1.46 1.46 1.57 1.57 1.58 1.57 1.55 1.63 1.77 1.86 1.88 1.74 1.51 1.23 1.14 1.19 1.33 1.46 1.62 1.57 1.13 1.12 1.22 1.24 1.33 1.27 1.22 1.35 1.37 1.36
1.91 1.93 1.96 1.99 1.97 2.04 2.15 1.99 1.92 1.76 1.70 1.58 1.45 1.36 1.32 1.31 1.41 1.33 1.40 1.48 1.49 1.60 1.69 1.70 1.63 1.32 1.15 1.10 1.35 1.59 1.63 1.65 1.48 1.23 1.40 1.57 1.43 1.37 1.25 1.28 1.48 1.39 1.35
2.10 2.09 2.07 2.07 2.05 2.05 2.09 1.95 1.92 1.72 1.61 1.47 1.35 1.25 1.22 1.20 1.24 1.35 1.44 1.52 1.41 1.32 1.29 1.23 1.21 1.15 1.13 1.22 1.49 1.79 1.95 2.01 1.75 1.51 1.51 1.68 1.42 1.28 1.18 1.21 1.40 1.36 1.29
2.12 2.14 2.03 1.94 1.87 1.86 1.91 1.78 1.78 1.68 1.67 1.53 1.39 1.31 1.26 1.19 1.32 1.54 1.63 1.64 1.45 1.26 1.23 1.26 1.31 1.32 1.40 1.48 1.60 1.92 2.20 2.38 2.14 1.61 1.37 1.44 1.34 1.28 1.24 1.22 1.32 1.46 1.38
1.99 1.95 1.87 1.78 1.69 1.65 1.75 1.66 1.67 1.67 1.69 1.56 1.45 1.39 1.46 1.38 1.48 1.62 1.59 1.61 1.51 1.27 1.18 1.17 1.20 1.23 1.17 1.20 1.43 1.60 2.05 2.55 2.28 1.82 1.30 1.34 1.39 1.56 1.82 1.37 1.20 1.28 1.35